Weather History for Hawthorne, CA

Change the Weather History Date:

Monday, January 7, 2013

  Actual Average Record
Temperature  
Mean Temperature 55 °F -  
Max Temperature 64 °F 62 °F 86 °F (1962)
Min Temperature 46 °F 47 °F 36 °F (1947)
Degree Days  
Heating Degree Days 10    
Growing Degree Days 5 (Base 50)    
Moisture  
Dew Point 38 °F    
Average Humidity 55    
Maximum Humidity 86    
Minimum Humidity 26    
Precipitation  
Precipitation 0.00 in - - ()
Sea Level Pressure  
Sea Level Pressure 30.03 in    
Wind  
Wind Speed 3 mph (WNW)    
Max Wind Speed 17 mph    
Max Gust Speed 17 mph    
Visibility 10 miles    
Events      
Averages and records for this station are not official NWS values.
T = Trace of Precipitation, MM = Missing Value Source: NWS Daily Summary

Daily Weather History Graph

Daily Weather History Graph

Search for Another Location

Airport:

Trip Planner

Search our weather history database for the weather conditions in past years. The results will help you decide how hot, cold, wet, or windy it might be!

Date:

Astronomy

Jan. 07, 2013 Rise Set
Actual Time 6:59 AM PST 5:00 PM PST
Civil Twilight 6:31 AM PST 5:28 PM PST
Nautical Twilight 6:00 AM PST 5:58 PM PST
Astronomical Twilight 5:30 AM PST 6:29 PM PST
Moon 2:31 AM PST (1/7) 1:13 PM PST (1/7)
Length of Visible Light 10h 56m
Length of Day
10h 01m
Waning Crescent, 21% of the Moon is Illuminated
Jan 7
Waning Crescent
Jan 11
New
Jan 18
First Quarter
Jan 26
Full
Feb 3
Last Quarter

Hourly Weather History & Observations

Time (PST) Temp. Dew Point Humidity Pressure Visibility Wind Dir Wind Speed Gust Speed Precip Events Conditions
12:53 AM 48.0 °F 43.0 °F 83% 30.03 in 10.0 mi Calm Calm - N/A   Scattered Clouds
1:53 AM 46.0 °F 42.1 °F 86% 30.02 in 10.0 mi Calm Calm - N/A   Clear
2:53 AM 46.9 °F 39.0 °F 74% 30.02 in 10.0 mi NW 3.5 mph - N/A   Clear
3:53 AM 50.0 °F 34.0 °F 54% 30.01 in 10.0 mi Variable 5.8 mph - N/A   Clear
4:53 AM 50.0 °F 34.0 °F 54% 30.02 in 10.0 mi NNW 5.8 mph - N/A   Clear
5:53 AM 48.9 °F 33.1 °F 54% 30.05 in 10.0 mi Calm Calm - N/A   Clear
6:53 AM 46.9 °F 36.0 °F 66% 30.07 in 10.0 mi NW 3.5 mph - N/A   Clear
7:53 AM 53.1 °F 32.0 °F 45% 30.10 in 10.0 mi WNW 8.1 mph 17.3 mph N/A   Clear
8:53 AM 55.9 °F 30.9 °F 39% 30.11 in 10.0 mi NW 5.8 mph - N/A   Clear
9:53 AM 60.1 °F 28.9 °F 31% 30.10 in 10.0 mi Variable 4.6 mph - N/A   Clear
11:04 AM 64.4 °F 28.4 °F 26% 30.08 in 10.0 mi WNW 6.9 mph - N/A   Clear
11:53 AM 63.0 °F 33.1 °F 33% 30.05 in 10.0 mi West 17.3 mph - N/A   Clear
12:53 PM 64.9 °F 34.0 °F 32% 30.01 in 10.0 mi WSW 11.5 mph - N/A   Clear
1:53 PM 64.0 °F 39.9 °F 41% 29.99 in 10.0 mi WSW 8.1 mph - N/A   Clear
3:53 PM 63.0 °F 39.0 °F 41% 29.99 in 10.0 mi SW 6.9 mph - N/A   Clear
4:53 PM 61.0 °F 42.1 °F 50% 29.99 in 10.0 mi West 5.8 mph - N/A   Clear
5:53 PM 59.0 °F 44.1 °F 58% 29.99 in 10.0 mi Calm Calm - N/A   Clear
6:53 PM 57.9 °F 44.1 °F 60% 30.00 in 10.0 mi East 3.5 mph - N/A   Clear
7:53 PM 55.0 °F 44.1 °F 67% 30.02 in 10.0 mi Calm Calm - N/A   Clear
8:53 PM 55.0 °F 42.1 °F 62% 30.02 in 10.0 mi Calm Calm - N/A   Clear
9:53 PM 53.1 °F 42.1 °F 66% 30.03 in 10.0 mi Calm Calm - N/A   Clear
10:53 PM 51.1 °F 41.0 °F 68% 30.04 in 10.0 mi Calm Calm - N/A   Clear
11:53 PM 50.0 °F 41.0 °F 71% 30.05 in 10.0 mi Calm Calm - N/A   Clear